EW4171 Weather Reports


time (UTC)temp
C
wind
direction
speed
KPH
gust
KPH
rain 1hr
cm
rain 24hr
cm
rain mn
cm
humidity
%
barometer
mb
20260505153011 6 226 0.0 8.0 0.00 0.00 0.00 48 1002.7
20260505151510 5 321 0.0 9.7 0.00 0.00 0.00 50 1002.9
20260505124612 0 57 0.0 1.6 0.00 0.00 0.00 66 1003.1
20260505123059 0 123 0.0 3.2 0.00 0.00 0.00 62 1002.8
20260505121552 1 101 0.0 1.6 0.00 0.00 0.00 59 1002.8
20260505120100 2 339 0.0 1.6 0.00 0.00 0.00 56 1002.8
20260505114543 3 54 0.0 9.7 0.00 0.00 0.00 51 1002.8
20260505113056 3 136 1.6 9.7 0.00 0.00 0.00 51 1002.8
20260505111539 4 212 0.0 6.4 0.00 0.00 0.00 49 1002.9
20260505101530 4 227 1.6 9.7 0.00 0.03 0.00 47 1002.1
20260505100027 5 301 0.0 6.4 0.00 0.03 0.00 45 1002.5
20260505094524 5 214 0.0 8.0 0.00 0.03 0.00 45 1002.6
20260505093020 5 267 0.0 6.4 0.00 0.03 0.00 44 1003.0
20260505091518 5 250 0.0 16.1 0.00 0.03 0.00 44 1003.2
20260505090014 6 230 3.2 17.7 0.00 0.05 0.00 42 1003.1
20260505084532 6 214 8.0 19.3 0.00 0.05 0.00 41 1003.3
20260505083009 7 220 4.8 16.1 0.00 0.05 0.00 41 1003.4
20260505081515 7 225 6.4 19.3 0.00 0.05 0.00 40 1003.5
20260505080004 7 203 8.0 19.3 0.00 0.05 0.00 39 1003.3
20260505074506 7 168 9.7 20.9 0.00 0.05 0.00 41 1003.3
20260505073108 7 233 6.4 27.4 0.00 0.05 0.00 42 1003.3
20260505071559 7 210 3.2 19.3 0.00 0.05 0.00 42 1003.4
20260505070054 7 253 1.6 8.0 0.00 0.05 0.00 42 1003.8
20260505064559 7 233 0.0 9.7 0.00 0.05 0.00 40 1003.8
20260505063054 7 230 3.2 14.5 0.00 0.05 0.00 39 1003.8
20260505061551 7 202 8.0 17.7 0.00 0.05 0.00 37 1004.0
20260505060042 7 221 1.6 9.7 0.00 0.05 0.05 37 1004.1
20260505054545 7 224 0.0 4.8 0.00 0.05 0.05 39 1004.3
20260505053106 8 217 0.0 14.5 0.00 0.05 0.05 37 1004.2
20260505051541 8 207 1.6 19.3 0.00 0.05 0.05 36 1004.2
20260505041543 8 164 6.4 12.9 0.00 0.05 0.05 33 1004.4
20260505040040 8 239 0.0 4.8 0.00 0.05 0.05 32 1004.5
20260505034540 8 217 1.6 16.1 0.00 0.05 0.05 31 1004.5
20260505033045 8 173 0.0 4.8 0.00 0.05 0.05 32 1004.4
20260505031540 8 17 3.2 11.3 0.00 0.05 0.05 33 1004.1
20260505030036 9 20 3.2 14.5 0.00 0.05 0.05 30 1004.0
20260505024535 9 213 1.6 14.5 0.00 0.05 0.05 30 1003.9
20260505023035 10 135 1.6 14.5 0.00 0.05 0.05 29 1003.9
20260505021534 10 99 4.8 20.9 0.00 0.05 0.05 28 1004.3
20260505020033 10 58 9.7 25.7 0.00 0.05 0.05 28 1004.3
20260505014533 10 29 0.0 9.7 0.00 0.05 0.05 27 1004.1
20260505013032 10 141 0.0 8.0 0.00 0.05 0.05 28 1003.7
20260505011553 10 195 6.4 16.1 0.00 0.05 0.05 27 1003.6
20260505010031 10 218 8.0 24.1 0.00 0.05 0.05 26 1003.7
20260505004530 11 226 9.7 27.4 0.00 0.05 0.05 25 1003.6
20260505003030 11 211 8.0 27.4 0.00 0.05 0.05 25 1003.8
20260505001528 11 164 8.0 22.5 0.00 0.05 0.05 26 1003.9
20260505000036 11 155 12.9 25.7 0.00 0.05 0.05 25 1003.6
20260504234528 12 238 12.9 41.8 0.00 0.05 0.05 24 1003.8
20260504233020 12 164 11.3 29.0 0.00 0.05 0.05 25 1003.6
20260504231515 13 202 3.2 22.5 0.00 0.05 0.05 26 1003.4
20260504230013 13 181 8.0 24.1 0.00 0.05 0.05 24 1003.6
20260504224512 13 214 6.4 19.3 0.00 0.05 0.05 26 1003.0
20260504223006 13 154 11.3 25.7 0.00 0.05 0.05 24 1003.5
20260504221504 13 222 8.0 27.4 0.00 0.05 0.05 26 1003.5
20260504214606 12 169 9.7 27.4 0.00 0.05 0.05 29 1004.1
20260504213053 12 214 11.3 35.4 0.00 0.05 0.05 29 1004.2
20260504211549 12 168 16.1 35.4 0.00 0.05 0.05 31 1004.1
20260504210045 12 207 11.3 32.2 0.00 0.05 0.05 31 1004.3
20260504204540 12 217 16.1 38.6 0.00 0.05 0.05 34 1004.5
20260504203037 12 197 8.0 37.0 0.00 0.05 0.05 36 1004.9
20260504201532 11 217 14.5 25.7 0.00 0.05 0.05 37 1005.1
20260504200029 11 209 14.5 29.0 0.00 0.05 0.05 38 1005.3
20260504194531 12 217 9.7 24.1 0.00 0.05 0.05 40 1005.0
20260504193024 12 194 9.7 27.4 0.00 0.05 0.05 41 1005.5
20260504191521 12 176 3.2 14.5 0.00 0.05 0.05 40 1005.1
20260504190024 12 254 1.6 27.4 0.00 0.05 0.05 37 1005.4
20260504184523 11 51 3.2 32.2 0.00 0.05 0.05 39 1005.2
20260504183017 12 45 11.3 38.6 0.00 0.05 0.05 39 1006.0
20260504181514 11 11 1.6 29.0 0.00 0.05 0.05 39 1005.9
20260504180014 11 286 11.3 27.4 0.00 0.05 0.05 40 1005.8
20260504174512 11 37 9.7 24.1 0.00 0.05 0.05 43 1006.5
20260504173009 11 150 12.9 30.6 0.00 0.05 0.05 42 1006.1
20260504171506 11 217 0.0 27.4 0.00 0.05 0.05 47 1006.3